• In Hungary
  • List of Countries
  • For 7 days
  • Water Temperature
  • Satellite Maps
  • Weather Map
  • News
  • Weather Widgets
  • user-avatar
    Login

    Hourly Weather Peremoha

    Today, 16 January, Tuesday

    Time Temperature Precipitation Wind Pressure Humidity
    00:00 -6°C° 0 mm 2 mps 768 mmHg 75%
    01:00 -6°C° 0 mm 2 mps 768 mmHg 76%
    02:00 -6°C° 0 mm 1 mps 768 mmHg 78%
    03:00 -6°C° 0 mm 1 mps 768 mmHg 78%
    04:00 -6°C° 0 mm 1 mps 768 mmHg 79%
    05:00 -6°C° 0 mm 1 mps 767 mmHg 79%
    06:00 -7°C° 0 mm 2 mps 767 mmHg 79%
    07:00 -8°C° 0 mm 3 mps 766 mmHg 79%
    08:00 -8°C° 0 mm 3 mps 766 mmHg 77%
    09:00 -7°C° 0 mm 4 mps 766 mmHg 72%
    10:00 -6°C° 0 mm 5 mps 765 mmHg 68%
    11:00 -5°C° 0 mm 6 mps 765 mmHg 63%
    12:00 -4°C° 0 mm 6 mps 764 mmHg 65%
    13:00 -3°C° 0 mm 7 mps 763 mmHg 66%
    14:00 -3°C° 0 mm 7 mps 762 mmHg 68%
    15:00 -4°C° 0.1 mm 7 mps 761 mmHg 73%
    16:00 -4°C° 0.1 mm 7 mps 760 mmHg 78%
    17:00 -4°C° 0.1 mm 7 mps 760 mmHg 82%
    18:00 -5°C° 0.4 mm 8 mps 759 mmHg 84%
    19:00 -4°C° 0.4 mm 8 mps 758 mmHg 86%
    20:00 -4°C° 0.4 mm 9 mps 757 mmHg 88%
    21:00 -2°C° 0.4 mm 8 mps 757 mmHg 89%
    22:00 -2°C° 0.4 mm 8 mps 756 mmHg 90%
    23:00 -1°C° 0.4 mm 8 mps 755 mmHg 91%

    Tomorrow, 17 January, Wednesday

    Time Temperature Precipitation Wind Pressure Humidity
    00:00 -2°C° 0.1 mm 6 mps 755 mmHg 92%
    01:00 -1°C° 0.1 mm 5 mps 755 mmHg 93%
    02:00 -1°C° 0.1 mm 4 mps 754 mmHg 94%
    03:00 -1°C° 0 mm 4 mps 754 mmHg 93%
    04:00 -1°C° 0 mm 3 mps 754 mmHg 92%
    05:00 -1°C° 0 mm 3 mps 754 mmHg 91%
    06:00 -1°C° 0 mm 3 mps 753 mmHg 91%
    07:00 -2°C° 0 mm 3 mps 753 mmHg 90%
    08:00 -2°C° 0 mm 3 mps 753 mmHg 89%
    09:00 -2°C° 0.1 mm 4 mps 753 mmHg 89%
    10:00 -1°C° 0.1 mm 4 mps 753 mmHg 89%
    11:00 0°C° 0.1 mm 5 mps 753 mmHg 89%
    12:00 0°C° 0.6 mm 5 mps 752 mmHg 91%
    13:00 -1°C° 0.6 mm 6 mps 751 mmHg 92%
    14:00 +1°C° 0.6 mm 6 mps 751 mmHg 93%
    15:00 +1°C° 0.1 mm 6 mps 750 mmHg 92%
    16:00 +2°C° 0.1 mm 6 mps 750 mmHg 92%
    17:00 +2°C° 0.1 mm 6 mps 749 mmHg 92%
    18:00 +3°C° 0.1 mm 6 mps 749 mmHg 92%
    19:00 +3°C° 0.1 mm 7 mps 748 mmHg 92%
    20:00 +3°C° 0.1 mm 7 mps 748 mmHg 91%
    21:00 +3°C° 0 mm 7 mps 747 mmHg 91%
    22:00 +3°C° 0 mm 7 mps 747 mmHg 90%
    23:00 +2°C° 0 mm 8 mps 746 mmHg 89%

    Day after tomorrow, 18 January, Thursday

    Time Temperature Precipitation Wind Pressure Humidity
    00:00 +2°C° 0.1 mm 9 mps 745 mmHg 86%
    01:00 +3°C° 0.1 mm 10 mps 745 mmHg 83%
    02:00 +4°C° 0.1 mm 11 mps 744 mmHg 80%
    03:00 +4°C° 0.1 mm 11 mps 743 mmHg 79%
    04:00 +4°C° 0.1 mm 12 mps 742 mmHg 79%
    05:00 +4°C° 0.1 mm 12 mps 741 mmHg 79%
    06:00 +4°C° 0.5 mm 12 mps 740 mmHg 81%
    07:00 +4°C° 0.5 mm 13 mps 739 mmHg 82%
    08:00 +4°C° 0.5 mm 13 mps 738 mmHg 84%
    09:00 +4°C° 0.9 mm 12 mps 738 mmHg 85%
    10:00 +4°C° 0.9 mm 11 mps 738 mmHg 86%
    11:00 +5°C° 0.9 mm 10 mps 738 mmHg 87%
    12:00 +3°C° 0.3 mm 10 mps 739 mmHg 83%
    13:00 +3°C° 0.3 mm 9 mps 739 mmHg 80%
    14:00 +2°C° 0.3 mm 8 mps 739 mmHg 77%
    15:00 +1°C° 0 mm 8 mps 740 mmHg 77%
    16:00 0°C° 0 mm 8 mps 741 mmHg 76%
    17:00 0°C° 0 mm 8 mps 743 mmHg 76%
    18:00 -1°C° 0 mm 8 mps 744 mmHg 75%
    19:00 -1°C° 0 mm 8 mps 745 mmHg 74%
    20:00 -1°C° 0 mm 8 mps 746 mmHg 73%
    21:00 -2°C° 0 mm 8 mps 747 mmHg 74%
    22:00 -2°C° 0 mm 8 mps 748 mmHg 74%
    23:00 -2°C° 0 mm 8 mps 749 mmHg 75%

    19 January, Friday

    Time Temperature Precipitation Wind Pressure Humidity
    00:00 -3°C° 0 mm 7 mps 750 mmHg 76%
    01:00 -3°C° 0 mm 6 mps 751 mmHg 77%
    02:00 -3°C° 0 mm 6 mps 751 mmHg 78%
    03:00 -4°C° 0 mm 5 mps 752 mmHg 78%
    04:00 -4°C° 0 mm 5 mps 752 mmHg 78%
    05:00 -4°C° 0 mm 5 mps 753 mmHg 78%
    06:00 -4°C° 0 mm 5 mps 753 mmHg 77%
    07:00 -3°C° 0 mm 4 mps 754 mmHg 76%
    08:00 -3°C° 0 mm 4 mps 754 mmHg 75%
    09:00 -2°C° 0 mm 6 mps 754 mmHg 68%
    10:00 0°C° 0 mm 7 mps 754 mmHg 61%
    11:00 +2°C° 0 mm 9 mps 754 mmHg 54%
    12:00 +3°C° 0 mm 9 mps 754 mmHg 55%
    13:00 +3°C° 0 mm 9 mps 753 mmHg 57%
    14:00 +3°C° 0 mm 10 mps 753 mmHg 59%
    15:00 +3°C° 0 mm 9 mps 753 mmHg 62%
    16:00 +4°C° 0 mm 8 mps 753 mmHg 65%
    17:00 +2°C° 0 mm 8 mps 753 mmHg 69%
    18:00 +3°C° 0 mm 7 mps 754 mmHg 71%
    19:00 +3°C° 0 mm 7 mps 754 mmHg 74%
    20:00 +3°C° 0 mm 7 mps 754 mmHg 77%
    21:00 +3°C° 0.1 mm 7 mps 754 mmHg 78%
    22:00 +3°C° 0.1 mm 7 mps 755 mmHg 79%
    23:00 +3°C° 0.1 mm 7 mps 755 mmHg 81%

    20 January, Saturday

    Time Temperature Precipitation Wind Pressure Humidity
    00:00 +3°C° 0.1 mm 7 mps 755 mmHg 83%
    01:00 +3°C° 0.1 mm 6 mps 756 mmHg 85%
    02:00 +3°C° 0.1 mm 6 mps 756 mmHg 88%
    03:00 +3°C° 0.1 mm 6 mps 756 mmHg 88%
    04:00 +3°C° 0.1 mm 5 mps 756 mmHg 89%
    05:00 +3°C° 0.1 mm 5 mps 756 mmHg 90%
    06:00 +3°C° 0 mm 5 mps 757 mmHg 90%
    07:00 +3°C° 0 mm 5 mps 757 mmHg 90%
    08:00 +3°C° 0 mm 5 mps 757 mmHg 89%
    09:00 +5°C° 0.1 mm 5 mps 757 mmHg 86%
    10:00 +5°C° 0.1 mm 6 mps 758 mmHg 82%
    11:00 +7°C° 0.1 mm 6 mps 758 mmHg 79%
    12:00 +8°C° 0 mm 6 mps 758 mmHg 75%
    13:00 +8°C° 0 mm 6 mps 757 mmHg 72%
    14:00 +9°C° 0 mm 6 mps 757 mmHg 69%
    15:00 +8°C° 0 mm 5 mps 757 mmHg 71%
    16:00 +7°C° 0 mm 5 mps 757 mmHg 74%
    17:00 +6°C° 0 mm 5 mps 757 mmHg 76%
    18:00 +6°C° 0 mm 5 mps 757 mmHg 75%
    19:00 +5°C° 0 mm 6 mps 757 mmHg 74%
    20:00 +5°C° 0 mm 6 mps 757 mmHg 73%
    21:00 +5°C° 0 mm 7 mps 757 mmHg 72%
    22:00 +5°C° 0 mm 7 mps 757 mmHg 72%
    23:00 +5°C° 0 mm 7 mps 757 mmHg 71%

    21 January, Sunday

    Time Temperature Precipitation Wind Pressure Humidity
    00:00 +5°C° 0 mm 7 mps 756 mmHg 69%
    01:00 +6°C° 0 mm 7 mps 756 mmHg 66%
    02:00 +6°C° 0 mm 7 mps 756 mmHg 64%
    03:00 +6°C° 0 mm 7 mps 756 mmHg 64%
    04:00 +6°C° 0 mm 7 mps 756 mmHg 65%
    05:00 +6°C° 0 mm 7 mps 755 mmHg 65%
    06:00 +6°C° 0 mm 7 mps 755 mmHg 66%
    07:00 +6°C° 0 mm 7 mps 755 mmHg 68%
    08:00 +7°C° 0 mm 6 mps 755 mmHg 69%
    09:00 +8°C° 0 mm 6 mps 755 mmHg 66%
    10:00 +8°C° 0 mm 6 mps 754 mmHg 63%
    11:00 +9°C° 0 mm 6 mps 754 mmHg 61%
    12:00 +10°C° 0 mm 6 mps 754 mmHg 59%
    13:00 +10°C° 0 mm 6 mps 753 mmHg 57%
    14:00 +10°C° 0 mm 5 mps 753 mmHg 55%
    15:00 +9°C° 0 mm 5 mps 752 mmHg 58%
    16:00 +8°C° 0 mm 5 mps 752 mmHg 62%
    17:00 +7°C° 0 mm 5 mps 751 mmHg 66%
    18:00 +7°C° 0 mm 5 mps 751 mmHg 69%
    19:00 +5°C° 0 mm 6 mps 750 mmHg 72%
    20:00 +5°C° 0 mm 6 mps 750 mmHg 74%
    21:00 +5°C° 0 mm 6 mps 749 mmHg 76%
    22:00 +4°C° 0 mm 7 mps 749 mmHg 78%
    23:00 +4°C° 0 mm 7 mps 748 mmHg 81%
    Show more